Regional Weather Roundup
Issued by NWS

Home | Current Version | Previous Version | Text Only | Print | Product List | Glossary Off
Versions: 1 2 3 4 5 6 7 8 9 10 11 12 13 14 15 16 17 18 19 20 21 22 23 24 25 26 27 28 29 30 31 32 33 34 35 36 37 38 39 40 41 42 43 44 45 46 47 48 49 50

000
ASUS43 KFSD 201510
RWRSD

WEATHER ROUNDUP FOR SOUTH DAKOTA
NATIONAL WEATHER SERVICE SIOUX FALLS SD
900 AM CST TUE FEB 20 2018

NOTE: "FAIR" INDICATES FEW OR NO CLOUDS BELOW 12,000 FEET WITH NO
SIGNIFICANT WEATHER AND/OR OBSTRUCTIONS TO VISIBILITY.


SDZ001>005-009-010-012>017-201600-
NORTHWEST AND NORTH CENTRAL SOUTH DAKOTA

CITY           SKY/WX    TMP DP  RH WIND       PRES   REMARKS
BUFFALO          N/A    -10 -15  78 W6        29.98R WCI -23
FAITH            N/A     -2  -4  91 W7        30.09R WCI -15
MOBRIDGE       LGT SNOW   6   0  76 NW14      30.10R WCI -11
$$

SDZ012>016-024>037-041>051-057-063-072>074-201600-
SOUTHWEST AND SOUTH CENTRAL SOUTH DAKOTA

CITY           SKY/WX    TMP DP  RH WIND       PRES   REMARKS
RAPID CTY ARPT SUNNY     -8 -13  78 NW10      30.06R WCI -26
PIERRE         FLURRIES   3   0  87 NW14      30.13S WCI -15
CUSTER         SUNNY     -6 -11  79 CALM      29.80R
ELLSWORTH AFB  SUNNY     -3  -9  76 N7        30.04R WCI -17
PHILIP         CLOUDY     2  -2  83 NW13      30.14R WCI -15
PINE RIDGE     CLOUDY   -12 -15  86 CALM      30.07R
SPEARFISH        N/A     -4 -13  65 W13       30.00R WCI -23
WINNER         LGT SNOW   4  -2  76 NW17      30.11R WCI -16
$$

SDZ004>011-016>023-039-040-201600-
NORTHEAST SOUTH DAKOTA

CITY           SKY/WX    TMP DP  RH WIND       PRES   REMARKS
ABERDEEN       LGT SNOW   5   1  83 NW20      30.09S FOG     WCI -15
WATERTOWN      LGT SNOW   4  -1  80 N17       29.98R WCI -16
BROOKINGS      FLURRIES   4  -1  80 NW13      30.00R WCI -13
SISSETON         N/A      5   1  83 NW22      30.02F WCI -16
$$

SDZ017-020-022-023-036>040-048>070-201600-
SOUTHEAST SOUTH DAKOTA

CITY           SKY/WX    TMP DP  RH WIND       PRES   REMARKS
SIOUX FALLS    CLOUDY     6   1  80 NW14      30.03R WCI -11
HURON          LGT SNOW   6   1  80 NW16      30.10R WCI -12
CHAMBERLAIN    LGT SNOW   6   1  82 W12G20    30.12R WCI -10
MITCHELL       PTSUNNY    6   1  80 NW18      30.12R WCI -13
YANKTON        FLURRIES   6   1  80 NW20      30.10R WCI -14
$$

ABBREVIATIONS USED IN REMARKS
   TC - TEMPERATURE IN CELSIUS
  WCI - WIND CHILL INDEX
   HX - HEAT INDEX
  VSB - VISIBILITY





USA.gov is the U.S. government's official web portal to all federal, state and local government web resources and services.